Regional Weather Roundup
Issued by NWS

Home | Current Version | Previous Version | Graphics & Text | Print | Product List | Glossary On
Versions: 1 2 3 4 5 6 7 8 9 10 11 12 13 14 15 16 17 18 19 20 21 22 23 24 25 26 27 28 29 30 31 32 33 34 35 36 37 38 39 40 41 42 43 44 45 46 47 48 49 50
000
ASUS43 KMPX 230101
RWRMN
WEATHER ROUNDUP FOR MINNESOTA
NATIONAL WEATHER SERVICE TWIN CITIES/CHANHASSEN MN
700 PM CST WED NOV 22 2017


NOTE: "FAIR" INDICATES FEW OR NO CLOUDS BELOW 12,000 FEET WITH NO
SIGNIFICANT WEATHER AND/OR OBSTRUCTIONS TO VISIBILITY. N/A MEANS
CURRENT SKY AND/OR WEATHER CONDITIONS ARE NOT AVAILABLE.

MNZ060>063-068>070-230200-
   Twin Cities Metro

CITY           SKY/WX    TMP DP  RH WIND       PRES   REMARKS
TWIN CITIES    CLOUDY    30  16  56 SE10      30.03F WCI  21
ST PAUL        CLOUDY    30  17  58 S12       30.05F WCI  20
CRYSTAL        CLOUDY    30  13  49 SE13      30.00F WCI  20
BLAINE         CLOUDY    30  16  55 S12       30.01F WCI  21
LAKEVILLE      CLOUDY    28  18  64 S7        30.03F WCI  21
EDEN PRAIRIE   CLOUDY    31  15  52 SE12      30.01F WCI  22
SOUTH ST PAUL  CLOUDY    31  16  54 S5        30.04F WCI  26
LAKE ELMO      MOCLDY    30  18  59 SE8       30.04F WCI  23
$$
MNZ001>005-007-008-013>017-022>024-027-028-230200-
   Northwest Minnesota

CITY           SKY/WX    TMP DP  RH WIND       PRES   REMARKS
BEMIDJI        CLOUDY    21  17  84 SE7       29.94F WCI  12
HALLOCK        CLOUDY    25  21  86 SE7       29.94S WCI  17
ROSEAU         CLOUDY    21  18  86 S5        29.94R WCI  15
WARROAD        CLOUDY    19  18  93 S3        29.95R
CROOKSTON      CLOUDY    28  19  69 S5        29.95S WCI  23
FOSSTON        CLOUDY    23  18  80 CALM      29.94S
DETROIT LAKES  CLOUDY    28  18  64 SE7       29.93R WCI  21
MOORHEAD       CLOUDY    27  16  63 SE3       29.93R
PARK RAPIDS    CLOUDY    24  16  71 SE5       29.95R WCI  18
MAHNOMEN       CLOUDY    27  17  64 S6        29.92F WCI  20
$$
MNZ006-009>011-018-025>026-230200-
   North Central Minnesota

CITY           SKY/WX    TMP DP  RH WIND       PRES   REMARKS
BAUDETTE       CLOUDY    20  16  84 S5        29.94S WCI  13
FLAG ISLAND    CLOUDY    19  18  93 S8        29.92F WCI   9
INTL FALLS     CLOUDY    20  14  77 SW5       29.95S WCI  13
WASKISH        CLOUDY    21  18  86 S5        29.95F WCI  15
BIG FORK       CLOUDY    21  18  86 S5        29.97R WCI  15
LONGVILLE      CLOUDY    21  18  86 SE3       29.98S
GRAND RAPIDS   LGT SNOW  20  18  92 S6        30.01R FOG     WCI  12
CRANE LAKE     CLOUDY    19  16  86 S6        29.98F WCI  11
ORR            CLOUDY    19  14  79 S6        29.94F WCI  11
COOK           CLOUDY    19  16  86 S6        29.97F WCI  11
WALKER         CLOUDY    21  17  84 CALM      29.96F
$$
MNZ012-019>021-037-230200-
   Northeast Minnesota

CITY           SKY/WX    TMP DP  RH WIND       PRES   REMARKS
DULUTH         FLURRIES  20  17  88 SW7       30.00R WCI  11
ELY            CLOUDY    19  16  86 SW6       29.97R WCI  11
HIBBING        LGT SNOW  19  16  88 S3        29.99S FOG
EVELETH        LGT SNOW  20  15  82 S5        30.00S WCI  13
DULUTH HARBOR  CLOUDY    25  19  80 SW8       30.05S WCI  16
TWO HARBORS    CLOUDY    25  18  74 SW7       30.00R WCI  17
SILVER BAY     CLOUDY    23  18  80 SW6       29.99F WCI  16
GRAND MARAIS     N/A     26  17  68 W6        30.01F WCI  19
G MARAIS ARPRT CLOUDY    18  10  73 SW6       29.94F WCI   9
$$
MNZ029>031-032-039>041-046>048-054>057-064-230200-
   West Central Minnesota

CITY           SKY/WX    TMP DP  RH WIND       PRES   REMARKS
FERGUS FALLS   CLOUDY    27  16  63 SE7       29.95S WCI  19
WHEATON        CLOUDY    27  18  69 SE6       29.93S WCI  20
MORRIS         CLEAR     27  18  69 SE8       29.91F WCI  18
ALEXANDRIA     CLOUDY    28  15  58 SE8       29.93F WCI  20
ELBOW LAKE     FAIR      27  16  62 E8        29.92S HAZE    WCI  19
WADENA         CLOUDY    25  16  68 SE8       29.93F WCI  16
GLENWOOD       CLEAR     27  18  69 SE5       29.93F WCI  21
APPLETON       CLEAR     30  18  59 S7        29.92F WCI  23
BENSON         CLEAR     28  16  59 S8        29.94F WCI  20
ORTONVILLE     CLEAR     27  18  69 NE3       29.90F
MADISON        CLEAR     30  18  59 SE7       29.92F WCI  23
WILLMAR        FAIR      28  19  69 CALM      29.96F
$$
MNZ033>034-036-042>043-049>051-058-059-230200-
   Central Minnesota

CITY           SKY/WX    TMP DP  RH WIND       PRES   REMARKS
ST CLOUD       CLOUDY    27  16  63 SE9       29.99S WCI  18
SAUK CENTRE    CLOUDY    28  16  60 SE8       29.95F WCI  20
PAYNESVILLE    CLOUDY    30  19  62 SE7       29.97S WCI  23
AITKIN         RAIN      19  18  93 S7        29.98S WCI  10
PINE RIVER     CLOUDY    19  16  86 S5        30.00S WCI  13
BRAINERD       CLOUDY    24  17  74 S6        29.99S WCI  17
STAPLES        CLOUDY    25  12  58 SE7       29.95F WCI  17
LITTLE FALLS   FLURRIES  27  12  54 SE7       29.98F WCI  19
LITCHFIELD     CLOUDY    30  19  64 CALM      29.98S
BUFFALO        CLOUDY    29  15  54 SE7       30.01S WCI  22
MAPLE LAKE     CLOUDY    30  19  62 SE6       30.00S WCI  24
HUTCHINSON     CLOUDY    32  19  59 S3        30.00S
$$
MNZ037-044-045-052-053-230200-
   East Central Minnesota

CITY           SKY/WX    TMP DP  RH WIND       PRES   REMARKS
PRINCETON      CLOUDY    28  16  59 SE3       30.01R
MORA           FLURRIES  23  19  86 S5        30.02F WCI  17
CAMBRIDGE      FLURRIES  28  16  59 SE3       30.02S
RUSH CITY      FLURRIES  23  19  86 S6        30.02F WCI  16
MOOSE LAKE     LGT SNOW  23  19  86 S6        30.00S WCI  16
HINCKLEY       CLOUDY    23  21  93 SE6       30.02S WCI  16
CLOQUET        LGT SNOW  21  18  86 S6        30.00S WCI  14
MCGREGOR       CLOUDY    23  19  86 S6        30.01R WCI  16
$$
MNZ071>073-080-081-089-090-097-098-230200-
   Southwest Minnesota

CITY           SKY/WX    TMP DP  RH WIND       PRES   REMARKS
MONTEVIDEO     CLEAR     30  18  59 SW5       29.94F WCI  25
GRANITE FALLS  CLEAR     30  18  59 SE9       29.96F WCI  22
CANBY          CLEAR     37  21  52 SW6       29.93R
MARSHALL       CLEAR     35  18  49 W10       29.95S WCI  27
REDWOOD FALLS  CLEAR     32  15  49 S7        29.99R WCI  26
OLIVIA         CLEAR     32  18  55 S8        29.97F WCI  25
PIPESTONE      CLEAR     30  18  59 SW12      29.93F WCI  21
WINDOM           N/A     34  16  47 S16G23    29.96S WCI  23
WORTHINGTON    CLEAR     32  16  51 SW21G28   29.95R WCI  20
JACKSON        CLOUDY    34  18  51 SW16G25   29.97F WCI  23
SLAYTON        CLEAR     32  12  43 SW16      29.95R WCI  21
$$
MNZ065>067-074>077-082>085-091>093-230200-
   South Central Minnesota

CITY           SKY/WX    TMP DP  RH WIND       PRES   REMARKS
MANKATO        CLOUDY    33  17  51 S8        30.02S WCI  26
NEW ULM        CLOUDY    34  16  47 CALM      30.01R
ST JAMES       CLOUDY    34  16  47 S12       29.99F WCI  25
FAIRMONT       CLOUDY    33  17  51 S17       29.99F WCI  22
GLENCOE        CLOUDY    32  18  56 SE7       30.00S WCI  26
FARIBAULT      CLOUDY    32  18  55 SE6       30.04R WCI  26
OWATONNA       CLOUDY    32  18  55 S8        30.04R WCI  25
WASECA         MIX PCPN  32  19  59 S9        30.04S WCI  24
ALBERT LEA     CLOUDY    32  14  47 S13       30.02F WCI  22
$$
MNZ078>079-086>088-094>096-230200-
   Southeast Minnesota

CITY           SKY/WX    TMP DP  RH WIND       PRES   REMARKS
ROCHESTER      CLOUDY    30  17  58 S12       30.04F WCI  20
RED WING       CLOUDY    30  12  47 S6        30.06F WCI  24
STANTON        CLOUDY    32  18  55 S7        30.03F WCI  26
DODGE CENTER   CLOUDY    30  16  55 S13       30.04S WCI  20
WINONA         CLOUDY    32  18  55 SE6       30.10F WCI  26
PRESTON        CLOUDY    29  15  54 S10       30.06F WCI  20
$$
ABBREVIATIONS USED IN REMARKS
   TC - TEMPERATURES IN CELSIUS
  WCI - WIND CHILL INDEX
   HX - HEAT INDEX
  VSB - VISIBILITY
$$



USA.gov is the U.S. government's official web portal to all federal, state and local government web resources and services.